Content
SEND FEEDBACK

Daily
Averages
Monthly
Summary
Mexico

SAN MARTINIANO, QUINTANA ROO


Home > North America > Mexico > Quintana Roo
Elevation: 49 feet     Latitude: 20 47N     Longitude: 087 16W

WEATHER
 
SELECT A DAY
Number of Records: 196,008;   Date Range: 2/21/06 - 7/7/14
 
SHARE

PRINT THIS DATA

[ ← Previous Day ]
WEATHER ALMANAC - OCTOBER 29, 2013
[ Next Day → ]
[ °C ]   °F
Weather ElementAverageHighLow
Temperature74.7 °F86 °F (2:15 pm)64.4 °F (1:55 am)
Dewpoint45.8 °F64.4 °F (1:55 am) (7:00 pm)
Humidity55.3 %100 % (1:55 am)31 % (2:35 pm)
Barometer30.21 in30.26 in (10:35 am)30.16 in (3:35 pm)
Wind Speed6.3 mph13.8 mph (4:15 pm)
Wind Gust18.4 mph (12:55 pm)
Weather ElementAverage
Visibility9.5 mi
Wind DirectionNE (47.1 °)

Weather ElementTotal
Precipitation---
Cooling Degree Days10.2 (Base 65)
Growing Degree Days25.2 (Base 50)
Averaged from 59 records on October 29, 2013
WEATHER CONDITIONS BREAKOUT
WIND DIRECTION BREAKOUT
WEATHER BY HOUR - OCTOBER 29, 2013
[ °C ]   °F
Local TimeTemperatureDewpointHumidityBarometerVisibilityWind DirectionWind SpeedGust SpeedPrecipitationEventsConditions
12:35 AM66.2 °F60.8 °F83 %30.21 in10.0 miNE (40°)3.5 mphClear
12:55 AM66.2 °F60.8 °F83 %30.21 in10.0 miNE (40°)4.6 mphClear
1:15 AM66.2 °F60.8 °F83 %30.21 in10.0 miNNE (30°)3.5 mphClear
1:35 AM66.2 °F62.6 °F88 %30.21 in10.0 miNNE (30°)3.5 mphClear
1:55 AM64.4 °F64.4 °F100 %30.21 in10.0 miNE (40°)3.5 mphClear
2:15 AM64.4 °F0.0 °F30.20 in10.0 miNNE (20°)4.6 mphClear
2:35 AM64.4 °F0.0 °F30.20 in10.0 miNNE (30°)4.6 mphClear
2:55 AM64.4 °F0.0 °F30.19 in10.0 miNNE (30°)3.5 mphClear
3:15 AM64.4 °F0.0 °F30.19 in7.0 miNNE (30°)3.5 mphClear
3:35 AM64.4 °F0.0 °F30.19 in7.0 miNNE (30°)3.5 mphClear
3:55 AM64.4 °F0.0 °F30.19 in7.0 miNNE (30°)3.5 mphClear
4:15 AM64.4 °F0.0 °F30.19 in7.0 miNNE (30°)3.5 mphClear
4:35 AM64.4 °F0.0 °F30.19 in7.0 miNNE (30°)3.5 mphClear
4:55 AM64.4 °F0.0 °F30.19 in7.0 miCalmClear
5:15 AM64.4 °F0.0 °F30.20 in7.0 miNNE (20°)3.5 mphClear
6:55 AM64.4 °F0.0 °F30.22 in5.0 miNE (40°)4.6 mphHaze
7:55 AM64.4 °F0.0 °F30.23 in4.0 miNE (40°)5.8 mphHaze
8:55 AM66.2 °F0.0 °F30.25 in10.0 miNE (50°)6.9 mphClear
10:35 AM75.2 °F64.4 °F69 %30.26 in10.0 miNNE (30°)8.1 mphClear
10:55 AM77.0 °F64.4 °F65 %30.26 in10.0 miNE (50°)8.1 mphClear
11:15 AM78.8 °F62.6 °F57 %30.26 in10.0 miEast (80°)8.1 mphClear
11:35 AM80.6 °F62.6 °F54 %30.26 in10.0 miENE (60°)12.7 mph16.1 mphScattered Clouds
11:55 AM80.6 °F60.8 °F51 %30.25 in10.0 miNE (40°)9.2 mphScattered Clouds
12:15 PM82.4 °F59.0 °F45 %30.25 in10.0 miNE (50°)8.1 mphClear
12:35 PM82.4 °F59.0 °F45 %30.24 in10.0 miNE (50°)9.2 mph17.3 mphScattered Clouds
12:55 PM84.2 °F57.2 °F40 %30.23 in10.0 miEast (80°)10.4 mph18.4 mphScattered Clouds
1:15 PM82.4 °F55.4 °F39 %30.22 in10.0 miENE (70°)5.8 mph17.3 mphScattered Clouds
1:35 PM84.2 °F53.6 °F35 %30.21 in10.0 miNE (50°)5.8 mphClear
1:55 PM84.2 °F53.6 °F35 %30.20 in10.0 miENE (70°)9.2 mph17.3 mphClear
2:15 PM86.0 °F55.4 °F35 %30.19 in10.0 miNNE (30°)8.1 mphMostly Cloudy
2:35 PM86.0 °F51.8 °F31 %30.17 in10.0 miNE (50°)9.2 mphScattered Clouds
2:55 PM84.2 °F53.6 °F35 %30.17 in10.0 miNE (50°)6.9 mphMostly Cloudy
3:15 PM86.0 °F53.6 °F33 %30.17 in10.0 miENE (60°)9.2 mphMostly Cloudy
3:35 PM82.4 °F53.6 °F37 %30.16 in10.0 miENE (60°)5.8 mphScattered Clouds
3:55 PM84.2 °F51.8 °F33 %30.16 in10.0 miENE (60°)8.1 mphClear
4:15 PM86.0 °F53.6 °F33 %30.16 in10.0 miEast (80°)13.8 mphScattered Clouds
4:35 PM82.4 °F55.4 °F39 %30.16 in10.0 miNE (40°)8.1 mphMostly Cloudy
4:55 PM84.2 °F53.6 °F35 %30.16 in10.0 miENE (60°)12.7 mphScattered Clouds
5:15 PM84.2 °F57.2 °F40 %30.16 in10.0 miENE (70°)10.4 mphClear
5:35 PM82.4 °F57.2 °F42 %30.17 in10.0 miENE (60°)8.1 mphClear
5:55 PM82.4 °F57.2 °F42 %30.17 in10.0 miNE (50°)5.8 mphScattered Clouds
6:15 PM80.6 °F57.2 °F45 %30.18 in10.0 miENE (60°)8.1 mphScattered Clouds
6:35 PM78.8 °F59.0 °F51 %30.19 in10.0 miNE (50°)6.9 mphScattered Clouds
6:55 PM78.8 °F59.0 °F51 %30.19 in10.0 miENE (60°)6.9 mphScattered Clouds
7:15 PM78.8 °F59.0 °F51 %30.20 in10.0 miENE (70°)8.1 mphScattered Clouds
7:35 PM77.0 °F59.0 °F54 %30.21 in10.0 miENE (60°)4.6 mphScattered Clouds
7:55 PM75.2 °F60.8 °F61 %30.21 in10.0 miENE (60°)5.8 mphScattered Clouds
8:15 PM75.2 °F60.8 °F61 %30.22 in10.0 miENE (60°)5.8 mphClear
8:35 PM73.4 °F60.8 °F65 %30.22 in10.0 miENE (60°)6.9 mphClear
8:55 PM73.4 °F59.0 °F61 %30.23 in10.0 miENE (60°)5.8 mphClear
9:15 PM73.4 °F59.0 °F61 %30.23 in10.0 miENE (60°)6.9 mphClear
9:35 PM73.4 °F60.8 °F65 %30.24 in10.0 miENE (60°)5.8 mphClear
9:55 PM73.4 °F60.8 °F65 %30.24 in10.0 miNE (50°)5.8 mphClear
10:15 PM71.6 °F60.8 °F69 %30.25 in10.0 miNE (40°)3.5 mphClear
10:35 PM71.6 °F59.0 °F64 %30.25 in10.0 miNNE (30°)3.5 mphClear
10:55 PM69.8 °F60.8 °F73 %30.25 in10.0 miNE (40°)4.6 mphClear
11:15 PM69.8 °F62.6 °F78 %30.24 in10.0 miNNE (30°)5.8 mphClear
11:35 PM69.8 °F62.6 °F78 %30.24 in10.0 miNE (40°)4.6 mphClear
11:55 PM69.8 °F64.4 °F83 %30.25 in10.0 miNNE (30°)4.6 mphClear
Hourly data recorded from KPCM, located miles away from San Martiniano, Quintana Roo







STORIES FROM OUR PARTNERS